Pipestone, MN

3:52 PM CST on February 07, 2016 (GMT -0600)
Pipestone Municipal

Weather History for KPQN - October, 2012

Change the Weather History Date:

Wednesday, October 10, 2012

  Actual Average Record
Temperature  
Mean Temperature 41 °F -  
Max Temperature 59 °F 60 °F 78 °F (2013)
Min Temperature 23 °F 38 °F 23 °F (2012)
Degree Days  
Heating Degree Days 24    
Moisture  
Dew Point 24 °F    
Average Humidity 51    
Maximum Humidity 93    
Minimum Humidity 23    
Precipitation  
Precipitation 0.00 in - - ()
Sea Level Pressure  
Sea Level Pressure 30.02 in    
Wind  
Wind Speed 8 mph (WSW)    
Max Wind Speed 16 mph    
Max Gust Speed 24 mph    
Visibility 10 miles    
Events      
Averages and records for this station are not official NWS values.
T = Trace of Precipitation, MM = Missing Value Source: NWS Daily Summary

Daily Weather History Graph

Daily Weather History Graph

Search for Another Location

Airport or City:

Trip Planner

Search our weather history database for the weather conditions in past years. The results will help you decide how hot, cold, wet, or windy it might be!

Date:

Astronomy

Oct. 10, 2012 Rise Set
Actual Time 7:34 AM CDT 6:49 PM CDT
Civil Twilight 7:05 AM CDT 7:17 PM CDT
Nautical Twilight 6:31 AM CDT 7:51 PM CDT
Astronomical Twilight 5:58 AM CDT 8:24 PM CDT
Moon 2:01 AM CDT (10/10) 4:01 PM CDT (10/10)
Length of Visible Light 12h 12m
Length of Day
11h 14m
Waning Crescent, 27% of the Moon is Illuminated
Oct 10
Waning Crescent
Oct 15
New
Oct 21
First Quarter
Oct 29
Full
Nov 6
Last Quarter

Hourly Weather History & Observations

Time (CDT) Temp. Windchill Dew Point Humidity Pressure Visibility Wind Dir Wind Speed Gust Speed Precip Events Conditions
12:13 AM 37.4 °F 33.8 °F 23.0 °F 56% 30.05 in 10.0 mi West 4.6 mph - N/A   Overcast
12:33 AM 37.4 °F 33.8 °F 23.0 °F 56% 30.06 in 10.0 mi West 4.6 mph - N/A   Overcast
12:53 AM 35.6 °F 30.7 °F 24.8 °F 65% 30.06 in 10.0 mi West 5.8 mph - N/A   Overcast
1:13 AM 35.6 °F 30.7 °F 24.8 °F 65% 30.06 in 10.0 mi WNW 5.8 mph - N/A   Overcast
1:33 AM 35.6 °F 30.7 °F 24.8 °F 65% 30.06 in 10.0 mi WNW 5.8 mph - N/A   Overcast
1:54 AM 35.6 °F 29.2 °F 24.8 °F 65% 30.06 in 10.0 mi WNW 8.1 mph - N/A   Overcast
2:13 AM 35.6 °F 29.2 °F 24.8 °F 65% 30.06 in 10.0 mi WNW 8.1 mph - N/A   Overcast
2:33 AM 35.6 °F 29.2 °F 24.8 °F 65% 30.06 in 10.0 mi WNW 8.1 mph - N/A   Overcast
2:54 AM 33.8 °F 27.7 °F 24.8 °F 70% 30.06 in 10.0 mi WNW 6.9 mph - N/A   Mostly Cloudy
3:13 AM 33.8 °F 27.7 °F 24.8 °F 70% 30.06 in 10.0 mi WNW 6.9 mph - N/A   Scattered Clouds
3:33 AM 32.0 °F 26.4 °F 24.8 °F 75% 30.07 in 10.0 mi WNW 5.8 mph - N/A   Clear
3:54 AM 28.4 °F 22.2 °F 23.0 °F 80% 30.07 in 10.0 mi WNW 5.8 mph - N/A   Clear
4:13 AM 28.4 °F 22.2 °F 23.0 °F 80% 30.07 in 10.0 mi WNW 5.8 mph - N/A   Clear
4:33 AM 28.4 °F 22.2 °F 23.0 °F 80% 30.07 in 10.0 mi West 5.8 mph - N/A   Clear
4:54 AM 26.6 °F 19.1 °F 21.2 °F 80% 30.08 in 10.0 mi WNW 6.9 mph - N/A   Clear
5:13 AM 26.6 °F 19.1 °F 21.2 °F 80% 30.09 in 10.0 mi West 6.9 mph - N/A   Clear
5:33 AM 26.6 °F 20.0 °F 21.2 °F 80% 30.09 in 10.0 mi WNW 5.8 mph - N/A   Clear
5:54 AM 26.6 °F 19.1 °F 21.2 °F 80% 30.10 in 10.0 mi WNW 6.9 mph - N/A   Clear
6:13 AM 28.4 °F 22.2 °F 23.0 °F 80% 30.09 in 10.0 mi WNW 5.8 mph - N/A   Clear
6:33 AM 24.8 °F 16.9 °F 21.2 °F 86% 30.10 in 10.0 mi West 6.9 mph - N/A   Clear
6:53 AM 24.8 °F 20.5 °F 21.2 °F 86% 30.11 in 10.0 mi West 3.5 mph - N/A   Clear
7:33 AM 24.8 °F 19.1 °F 21.2 °F 86% 30.11 in 10.0 mi WNW 4.6 mph - N/A   Clear
7:53 AM 23.0 °F 15.8 °F 21.2 °F 93% 30.12 in 10.0 mi WSW 5.8 mph - N/A   Clear
8:13 AM 24.8 °F 19.1 °F 21.2 °F 86% 30.12 in 10.0 mi WSW 4.6 mph - N/A   Clear
8:33 AM 26.6 °F - 24.8 °F 93% 30.12 in 10.0 mi Calm Calm - N/A   Clear
8:53 AM 28.4 °F 24.6 °F 24.8 °F 86% 30.12 in 10.0 mi WSW 3.5 mph - N/A   Clear
9:13 AM 30.2 °F - 26.6 °F 86% 30.12 in 10.0 mi Calm Calm - N/A   Clear
9:33 AM 35.6 °F 29.9 °F 26.6 °F 70% 30.12 in 10.0 mi WSW 6.9 mph - N/A   Clear
9:54 AM 37.4 °F 32.8 °F 26.6 °F 65% 30.12 in 10.0 mi WSW 5.8 mph - N/A   Clear
10:13 AM 39.2 °F 35.0 °F 26.6 °F 61% 30.11 in 10.0 mi WSW 5.8 mph - N/A   Clear
10:33 AM 41.0 °F 35.8 °F 24.8 °F 53% 30.11 in 10.0 mi WSW 8.1 mph - N/A   Clear
10:54 AM 42.8 °F 37.5 °F 24.8 °F 49% 30.11 in 10.0 mi WSW 9.2 mph - N/A   Clear
11:13 AM 44.6 °F 39.2 °F 23.0 °F 43% 30.11 in 10.0 mi WSW 10.4 mph - N/A   Clear
11:33 AM 46.4 °F 41.1 °F 23.0 °F 40% 30.11 in 10.0 mi WSW 11.5 mph 16.1 mph N/A   Clear
11:53 AM 48.2 °F - 21.2 °F 34% 30.11 in 10.0 mi West 8.1 mph - N/A   Clear
12:13 PM 50.0 °F - 19.4 °F 30% 30.10 in 10.0 mi West 12.7 mph - N/A   Clear
12:33 PM 51.8 °F - 19.4 °F 28% 30.08 in 10.0 mi West 12.7 mph 20.7 mph N/A   Clear
12:54 PM 51.8 °F - 17.6 °F 26% 30.07 in 10.0 mi WSW 15.0 mph 19.6 mph N/A   Clear
1:13 PM 53.6 °F - 17.6 °F 24% 30.06 in 10.0 mi West 16.1 mph 21.9 mph N/A   Clear
1:33 PM 53.6 °F - 17.6 °F 24% 30.06 in 10.0 mi West 15.0 mph 19.6 mph N/A   Clear
1:54 PM 53.6 °F - 17.6 °F 24% 30.04 in 10.0 mi West 12.7 mph 24.2 mph N/A   Clear
2:13 PM 55.4 °F - 19.4 °F 25% 30.03 in 10.0 mi WSW 15.0 mph 20.7 mph N/A   Clear
2:33 PM 55.4 °F - 17.6 °F 23% 30.01 in 10.0 mi West 13.8 mph 19.6 mph N/A   Clear
2:54 PM 57.2 °F - 19.4 °F 23% 30.00 in 10.0 mi WSW 12.7 mph - N/A   Clear
3:13 PM 57.2 °F - 19.4 °F 23% 29.99 in 10.0 mi WSW 12.7 mph 19.6 mph N/A   Clear
3:33 PM 57.2 °F - 19.4 °F 23% 29.98 in 10.0 mi West 13.8 mph 20.7 mph N/A   Clear
3:53 PM 59.0 °F - 21.2 °F 23% 29.97 in 10.0 mi West 13.8 mph 21.9 mph N/A   Clear
4:13 PM 59.0 °F - 21.2 °F 23% 29.96 in 10.0 mi WSW 13.8 mph 21.9 mph N/A   Clear
4:33 PM 59.0 °F - 23.0 °F 25% 29.95 in 10.0 mi WSW 12.7 mph 24.2 mph N/A   Clear
4:53 PM 59.0 °F - 23.0 °F 25% 29.95 in 10.0 mi WSW 11.5 mph - N/A   Clear
5:13 PM 59.0 °F - 23.0 °F 25% 29.94 in 10.0 mi SW 15.0 mph - N/A   Clear
5:33 PM 59.0 °F - 24.8 °F 27% 29.94 in 10.0 mi SW 12.7 mph 18.4 mph N/A   Clear
5:54 PM 59.0 °F - 26.6 °F 29% 29.93 in 10.0 mi WSW 13.8 mph 20.7 mph N/A   Clear
6:13 PM 59.0 °F - 26.6 °F 29% 29.92 in 10.0 mi SW 11.5 mph - N/A   Clear
6:33 PM 57.2 °F - 26.6 °F 31% 29.91 in 10.0 mi SW 10.4 mph - N/A   Clear
6:54 PM 53.6 °F - 28.4 °F 38% 29.91 in 10.0 mi SW 8.1 mph - N/A   Clear
7:13 PM 51.8 °F - 28.4 °F 41% 29.91 in 10.0 mi SSW 6.9 mph - N/A   Clear
7:33 PM 50.0 °F - 28.4 °F 43% 29.91 in 10.0 mi SSW 4.6 mph - N/A   Clear
7:53 PM 48.2 °F - 28.4 °F 46% 29.91 in 10.0 mi SSW 6.9 mph - N/A   Clear
8:13 PM 46.4 °F 42.9 °F 26.6 °F 46% 29.90 in 10.0 mi SSW 6.9 mph - N/A   Clear
8:33 PM 48.2 °F - 26.6 °F 43% 29.90 in 10.0 mi SSW 6.9 mph - N/A   Clear
8:53 PM 51.8 °F - 28.4 °F 41% 29.88 in 10.0 mi SSW 12.7 mph 17.3 mph N/A   Clear
9:13 PM 51.8 °F - 28.4 °F 41% 29.88 in 10.0 mi SSW 11.5 mph 16.1 mph N/A   Clear
9:33 PM 51.8 °F - 28.4 °F 41% 29.87 in 10.0 mi SSW 11.5 mph - N/A   Clear
9:54 PM 51.8 °F - 28.4 °F 41% 29.87 in 10.0 mi SSW 12.7 mph - N/A   Clear
10:13 PM 51.8 °F - 28.4 °F 41% 29.86 in 10.0 mi SSW 13.8 mph 20.7 mph N/A   Clear
10:33 PM 51.8 °F - 28.4 °F 41% 29.86 in 10.0 mi SW 13.8 mph - N/A   Clear
10:54 PM 50.0 °F - 28.4 °F 43% 29.86 in 10.0 mi SW 13.8 mph - N/A   Clear
11:13 PM 50.0 °F - 28.4 °F 43% 29.86 in 10.0 mi SSW 12.7 mph - N/A   Clear
11:33 PM 51.8 °F - 28.4 °F 41% 29.85 in 10.0 mi SW 13.8 mph - N/A   Clear
11:54 PM 51.8 °F - 28.4 °F 41% 29.85 in 10.0 mi SW 13.8 mph - N/A   Clear